Jerez de la Frontera, Spain

10:54 AM CEST on August 21, 2017 (GMT +0200)
Jerez

Weather History for LEJR - January, 2013

Change the Weather History Date:

Thursday, January 3, 2013

  Actual Average Record
Temperature  
Mean Temperature 52 °F -  
Max Temperature 64 °F 59 °F 70 °F (2017)
Min Temperature 41 °F 40 °F 32 °F (2015)
Degree Days  
Heating Degree Days 12    
Growing Degree Days 2 (Base 50)    
Moisture  
Dew Point 41 °F    
Average Humidity 69    
Maximum Humidity 96    
Minimum Humidity 42    
Precipitation  
Precipitation 0.00 in 0.13 in - ()
Sea Level Pressure  
Sea Level Pressure 30.45 in    
Wind  
Wind Speed 6 mph ()    
Max Wind Speed 15 mph    
Max Gust Speed -    
Visibility 6.4 miles    
Events      
Averages and records for this station are not official NWS values.
T = Trace of Precipitation, MM = Missing Value Source: Averaged Metar Reports

Daily Weather History Graph

Daily Weather History Graph

Search for Another Location

Airport or City:

Trip Planner

Search our weather history database for the weather conditions in past years. The results will help you decide how hot, cold, wet, or windy it might be!

Date:

Astronomy

Jan. 03, 2013 Rise Set
Actual Time 8:37 AM CET 6:20 PM CET
Civil Twilight 8:08 AM CET 6:49 PM CET
Nautical Twilight 7:36 AM CET 7:21 PM CET
Astronomical Twilight 7:04 AM CET 7:53 PM CET
Moon No Moon Rise 11:51 AM CET (1/3)
Length of Visible Light 10h 40m
Length of Day
9h 43m
Waning Gibbous, 68% of the Moon is Illuminated
Jan 3
Waning Gibbous
Jan 5
Last Quarter
Jan 11
New
Jan 19
First Quarter
Jan 27
Full

Hourly Weather History & Observations

Time (CET) Temp. Windchill Dew Point Humidity Pressure Visibility Wind Dir Wind Speed Gust Speed Precip Events Conditions
1:00 AM 44 °F - 43 °F 96% 30.34 in 9 mi NNW 9.2 mph - -  
5:00 AM 46.4 °F - 39.2 °F 76% 30.33 in - Variable 1.2 mph - N/A   Clear
5:30 AM 44.6 °F 41.4 °F 39.2 °F 81% 30.33 in - NNW 5.8 mph - N/A   Clear
6:00 AM 46.4 °F 41.1 °F 39.2 °F 76% 30.33 in - North 11.5 mph - N/A   Clear
6:30 AM 44.6 °F 39.2 °F 39.2 °F 81% 30.33 in - North 10.4 mph - N/A   Clear
7:00 AM 42 °F - 40 °F 88% 30.36 in 9 mi North 6.9 mph - -  
7:00 AM 42.8 °F 38.6 °F 39.2 °F 87% 30.36 in - North 6.9 mph - N/A   Clear
7:30 AM 42.8 °F 41.1 °F 39.2 °F 87% 30.36 in - North 3.5 mph - N/A   Clear
8:00 AM 41.0 °F 39.0 °F 37.4 °F 87% 30.36 in - North 3.5 mph - N/A   Clear
8:30 AM 42.8 °F - 39.2 °F 87% 30.39 in - Calm Calm - N/A   Clear
9:00 AM 41.0 °F - 39.2 °F 93% 30.39 in - Variable 2.3 mph - N/A   Clear
9:30 AM 42.8 °F 41.1 °F 39.2 °F 87% 30.42 in - North 3.5 mph - N/A   Clear
10:00 AM 44.6 °F 40.2 °F 41.0 °F 87% 30.42 in 6.2 mi North 8.1 mph - N/A   Partly Cloudy
10:30 AM 46.4 °F 43.5 °F 41.0 °F 81% 30.45 in 6.2 mi NNE 5.8 mph - N/A   Partly Cloudy
11:00 AM 50.0 °F - 42.8 °F 76% 30.45 in 6.2 mi Variable 1.2 mph - N/A   Partly Cloudy
11:30 AM 51.8 °F - 42.8 °F 71% 30.45 in 6.2 mi Calm Calm - N/A   Partly Cloudy
12:00 PM 55.4 °F - 44.6 °F 67% 30.48 in 6.2 mi Variable 1.2 mph - N/A   Partly Cloudy
12:30 PM 57.2 °F - 46.4 °F 67% 30.48 in 6.2 mi Variable 2.3 mph - N/A   Partly Cloudy
1:00 PM 60 °F - 49 °F 58% 30.48 in - WNW 2.3 mph - -  
1:00 PM 59.0 °F - 46.4 °F 63% 30.48 in 6.2 mi Variable 2.3 mph - N/A   Partly Cloudy
2:00 PM 62.6 °F - 39.2 °F 42% 30.45 in 6.2 mi East 12.7 mph - N/A   Partly Cloudy
2:30 PM 64.4 °F - 41.0 °F 42% 30.45 in 6.2 mi ESE 13.8 mph - N/A   Partly Cloudy
3:00 PM 64.4 °F - 41.0 °F 42% 30.45 in 6.2 mi ESE 12.7 mph - N/A   Partly Cloudy
3:30 PM 64.4 °F - 41.0 °F 42% 30.45 in 6.2 mi ESE 13.8 mph - N/A   Partly Cloudy
4:00 PM 62.6 °F - 41.0 °F 45% 30.45 in 6.2 mi ESE 13.8 mph - N/A   Partly Cloudy
4:30 PM 62.6 °F - 39.2 °F 42% 30.45 in 6.2 mi ESE 15.0 mph - N/A   Partly Cloudy
5:00 PM 62.6 °F - 41.0 °F 45% 30.48 in 6.2 mi SE 11.5 mph - N/A   Partly Cloudy
5:30 PM 60.8 °F - 39.2 °F 45% 30.48 in 6.2 mi SE 12.7 mph - N/A   Partly Cloudy
6:00 PM 59.0 °F - 39.2 °F 48% 30.51 in 6.2 mi ESE 11.5 mph - N/A   Partly Cloudy
6:30 PM 55.4 °F - 39.2 °F 54% 30.51 in 6.2 mi ESE 11.5 mph - N/A   Partly Cloudy
7:00 PM 54 °F - 42 °F 55% 30.53 in 37 mi ESE 8.1 mph - -   Scattered Clouds
7:00 PM 53.6 °F - 41.0 °F 62% 30.51 in 6.2 mi ESE 8.1 mph - N/A   Partly Cloudy
7:30 PM 53.6 °F - 41.0 °F 62% 30.54 in 6.2 mi ESE 5.8 mph - N/A   Partly Cloudy
8:00 PM 50.0 °F - 42.8 °F 76% 30.54 in 6.2 mi NE 4.6 mph - N/A   Partly Cloudy
8:30 PM 50.0 °F - 41.0 °F 71% 30.54 in 6.2 mi East 3.5 mph - N/A   Partly Cloudy
9:00 PM 48.2 °F - 41.0 °F 76% 30.57 in 6.2 mi ESE 4.6 mph - N/A   Partly Cloudy
9:30 PM 48.2 °F - 41.0 °F 76% 30.57 in 6.2 mi ESE 4.6 mph - N/A   Partly Cloudy
10:00 PM 48.2 °F - 41.0 °F 76% 30.57 in 6.2 mi Calm Calm - N/A   Partly Cloudy
10:30 PM 46.4 °F - 41.0 °F 81% 30.57 in 6.2 mi Calm Calm - N/A   Partly Cloudy
11:00 PM 46.4 °F 45.2 °F 41.0 °F 81% 30.57 in 6.2 mi ENE 3.5 mph - N/A   Partly Cloudy